Date,TemperatureHighF,TemperatureAvgF,TemperatureLowF,DewpointHighF,DewpointAvgF,DewpointLowF,HumidityHigh,HumidityAvg,HumidityLow,PressureMaxIn,PressureMinIn,WindSpeedMaxMPH,WindSpeedAvgMPH,GustSpeedMaxMPH,PrecipitationSumIn
2013-1-1,25.5,23.4,14.2,9.5,-5.0,-14.6,56,29,17,30.06,29.94,4,2,9,0.00
2013-1-2,26.4,21.0,14.0,11.4,1.0,-5.2,75,42,32,30.06,29.94,9,2,9,0.00
2013-1-3,28.9,24.6,18.3,14.8,3.8,-9.3,62,41,28,30.03,29.91,10,2,10,0.00
2013-1-4,32.4,27.5,24.8,8.6,2.8,-1.0,42,34,25,30.03,29.91,15,4,15,0.00
2013-1-5,24.1,23.6,23.5,6.3,5.5,4.8,47,45,44,30.06,30.06,6,3,6,0.00
2013-1-12,60.6,52.9,46.8,39.5,27.8,14.3,74,41,17,29.85,29.80,8,1,8,0.00
2013-1-13,47.3,39.6,31.3,40.2,26.9,11.9,83,61,44,29.94,29.65,9,1,9,0.51
2013-1-14,31.3,24.9,15.8,15.5,-1.5,-13.2,71,33,15,30.33,29.94,9,3,9,0.00
2013-1-15,35.2,23.1,11.1,27.3,1.0,-13.1,88,44,15,30.36,30.09,6,1,6,0.00
2013-1-16,39.2,29.3,17.8,29.7,3.2,-9.1,91,40,13,30.09,29.74,13,3,13,0.00
2013-1-17,36.0,28.9,16.0,23.3,-1.0,-20.0,70,29,14,30.24,29.85,9,3,9,0.00
2013-1-18,34.3,23.1,9.7,15.0,-4.6,-17.2,76,33,15,30.36,29.88,12,3,13,0.00
2013-1-19,46.4,39.2,30.7,16.2,5.2,-3.9,41,25,14,29.91,29.53,15,4,15,0.00
2013-1-20,43.0,22.8,14.9,12.8,-14.3,-20.5,42,18,13,30.09,29.50,22,6,28,0.00
2013-1-21,20.7,12.9,4.8,10.1,-12.3,-24.4,72,33,18,30.09,30.09,10,3,10,0.00
2013-1-22,11.3,4.8,-2.2,-10.4,-16.3,-22.6,36,36,36,30.09,30.09,11,3,11,0.00
2013-1-23,19.0,10.5,-0.4,11.7,-8.7,-21.1,77,42,21,30.09,30.09,10,1,10,0.00
2013-1-24,24.4,13.9,7.7,14.8,-2.7,-19.4,82,52,17,30.09,30.09,6,1,6,0.00
2013-1-25,26.1,17.8,10.8,19.3,4.6,-3.6,81,57,33,30.09,30.09,8,1,8,0.00
2013-1-26,29.5,21.8,9.3,23.5,4.3,-11.0,88,51,18,30.09,30.09,7,1,8,0.00
2013-1-27,30.9,20.1,5.9,25.4,3.2,-9.8,87,52,18,30.09,29.50,11,3,11,0.00
2013-1-28,44.4,36.3,28.0,40.8,30.2,20.4,89,79,51,29.68,29.44,12,1,13,0.47
2013-1-29,55.6,44.0,32.9,52.7,40.6,24.5,91,87,69,29.68,29.18,9,2,10,0.94
2013-1-30,57.7,50.4,33.6,49.7,35.6,11.9,85,58,38,29.18,28.82,13,3,13,0.39
2013-1-31,33.4,22.6,16.3,12.3,-9.8,-16.5,41,23,17,29.53,28.91,17,6,17,0.00
2013-2-1,22.3,15.7,9.7,-1.9,-14.2,-22.0,45,26,15,29.88,29.53,10,4,10,0.00
2013-2-2,27.0,16.4,4.1,19.3,-5.2,-18.8,73,39,24,29.85,29.59,10,2,10,0.00
2013-2-3,23.7,13.8,1.4,10.9,-5.8,-16.1,61,43,19,29.68,29.50,8,2,8,0.04
2013-2-4,26.4,18.7,9.3,17.0,1.1,-10.1,74,47,26,29.68,29.56,5,1,5,0.00
2013-2-5,29.8,23.6,13.6,20.9,2.6,-13.2,75,43,15,29.62,29.50,8,1,8,0.00
2013-2-6,36.5,23.1,7.0,21.1,-2.1,-13.2,80,36,15,29.97,29.62,10,2,10,0.00
2013-2-7,37.0,29.6,24.1,16.3,3.5,-1.8,60,33,24,29.97,29.62,10,4,10,0.00
2013-2-8,33.3,27.3,22.8,27.3,9.5,-0.1,82,48,32,30.00,29.47,9,3,9,0.00
2013-2-9,37.9,23.9,10.9,19.5,0.1,-11.9,81,40,14,30.12,29.97,8,2,9,0.00
2013-2-10,37.8,26.6,12.0,33.3,8.1,-1.4,85,48,11,29.97,29.44,12,3,12,0.08
2013-2-11,68.5,36.6,32.0,48.1,15.5,0.2,90,47,22,29.53,29.26,15,5,17,0.08
2013-2-12,33.4,30.7,27.9,11.3,2.6,-1.4,42,30,23,29.74,29.53,13,4,13,0.00
2013-2-13,41.7,30.9,26.2,24.1,2.6,-9.2,75,32,13,29.62,29.44,8,1,8,0.00
2013-2-14,36.9,31.5,24.3,22.2,12.4,9.2,74,46,35,29.53,29.44,15,3,17,0.00
2013-2-15,34.5,27.7,22.5,14.4,-4.6,-14.7,60,25,15,29.80,29.53,15,3,15,0.00
2013-2-16,31.5,20.5,10.9,19.0,-0.4,-13.1,80,42,15,29.80,29.68,10,1,10,0.00
2013-2-17,26.2,15.9,7.5,17.4,-7.4,-20.0,85,39,16,29.91,29.74,8,2,10,0.00
2013-2-18,43.2,27.5,8.1,17.1,-0.3,-11.2,80,33,15,29.91,29.35,16,4,19,0.00
2013-2-19,43.7,29.6,18.1,36.8,7.6,-11.6,82,41,23,29.62,29.15,23,6,23,0.12
2013-2-20,24.3,19.9,15.6,4.3,-8.6,-13.1,45,28,19,29.91,29.62,12,4,17,0.00
2013-2-21,28.6,20.8,17.1,14.9,-3.8,-15.3,74,35,15,30.09,29.91,6,2,6,0.00
2013-2-22,35.6,27.5,20.7,33.1,15.6,1.7,91,62,43,30.00,29.62,14,4,14,0.00
2013-2-23,35.8,31.3,25.9,33.0,6.1,-5.3,90,37,20,29.65,29.59,9,2,9,0.00
2013-2-24,36.9,28.3,20.1,24.1,6.8,2.2,89,41,25,29.88,29.62,8,2,8,0.04
2013-2-25,45.3,28.1,10.9,38.3,4.3,-8.9,96,44,12,29.94,29.83,8,1,10,0.00
2013-2-26,39.4,31.3,23.5,31.0,13.6,-1.5,84,51,19,29.85,29.32,15,2,15,0.08
2013-2-27,41.0,35.5,33.8,37.4,27.0,16.0,88,72,43,29.32,29.23,4,0,4,0.04
2013-2-28,40.1,33.8,28.9,34.7,17.2,3.3,88,54,31,29.71,29.29,10,2,10,0.35
2013-3-1,30.7,26.8,24.4,14.4,2.8,-0.4,55,35,31,29.83,29.71,10,3,10,0.00
2013-3-2,31.1,25.5,23.9,21.4,3.3,-0.9,74,38,28,29.80,29.77,6,2,6,0.00
2013-3-10,62.6,55.6,47.7,27.0,5.3,2.5,36,13,11,29.65,29.59,8,2,8,0.00
2013-3-11,52.5,48.2,37.6,44.4,27.5,4.3,82,47,17,29.59,29.26,19,4,19,0.31
2013-3-12,38.3,35.0,29.8,20.8,10.9,-0.8,56,37,23,29.65,29.44,15,3,15,0.00
2013-3-13,33.8,29.1,25.2,25.2,0.0,-13.2,78,31,15,29.91,29.59,13,4,13,0.00
2013-3-14,41.9,30.7,19.9,15.8,-5.0,-13.2,61,23,13,29.97,29.80,10,2,10,0.00
2013-3-15,39.9,34.5,28.2,25.5,10.1,-11.0,60,38,15,29.83,29.62,10,2,11,0.00
2013-3-16,35.2,29.7,25.3,27.5,11.2,1.5,84,47,27,29.80,29.56,5,0,5,0.00
2013-3-17,34.3,27.0,18.7,24.9,-3.7,-15.8,86,28,15,30.03,29.77,10,3,10,0.08
2013-3-18,36.5,28.4,18.7,32.7,13.6,-4.2,86,56,32,29.97,29.35,15,4,15,0.04
2013-3-19,34.5,27.2,23.5,19.6,3.5,-6.4,54,36,24,29.68,29.38,13,3,13,0.00
2013-3-20,33.1,24.4,17.2,5.2,-7.4,-15.6,47,25,15,29.71,29.65,10,4,10,0.00
2013-3-21,33.6,24.2,14.9,10.9,1.7,-7.5,59,38,25,29.68,29.59,9,4,9,0.00
2013-3-22,39.9,30.3,24.4,30.1,0.1,-5.8,82,28,16,29.80,29.68,9,3,9,0.04
2013-3-23,43.7,32.9,24.6,29.2,3.7,-7.5,85,32,13,29.85,29.77,6,1,8,0.00
2013-3-24,38.8,30.2,21.6,32.8,9.2,-9.4,93,49,14,29.85,29.44,12,2,14,0.00
2013-3-25,41.5,34.5,30.2,15.4,3.0,-4.0,49,27,16,29.68,29.38,12,3,12,0.00
2013-3-26,48.6,38.0,32.7,27.5,6.6,-3.9,71,28,12,29.85,29.65,8,2,8,0.00
2013-3-27,50.2,39.1,29.3,11.9,0.8,-7.5,46,22,11,29.94,29.85,13,4,13,0.00
2013-3-28,54.7,41.7,32.7,18.9,-0.2,-7.5,52,18,10,30.03,29.94,8,2,9,0.00
2013-3-29,57.6,42.0,29.3,28.5,-0.8,-8.8,79,18,9,30.03,29.94,8,1,8,0.00
2013-3-30,62.4,43.5,23.9,33.5,5.2,-4.9,87,29,9,29.97,29.74,9,1,9,0.00
2013-3-31,60.4,44.9,32.7,26.6,7.7,-7.7,50,24,9,29.74,29.41,13,2,13,0.00
2013-4-1,41.9,32.6,26.1,14.0,-6.6,-16.7,43,19,12,29.85,29.47,12,4,12,0.00
2013-4-2,43.7,31.3,21.7,8.1,-8.8,-16.0,50,18,12,30.00,29.83,11,3,11,0.00
2013-4-3,44.4,31.9,19.9,9.3,-8.5,-17.5,50,18,12,30.18,30.00,10,2,10,0.00
2013-4-4,59.7,41.1,23.9,9.3,-1.7,-13.8,45,19,9,30.12,29.74,11,2,11,0.00
2013-4-5,51.3,40.4,27.5,20.5,-1.6,-10.4,57,19,11,30.00,29.74,8,2,8,0.00
2013-4-6,50.2,36.7,23.9,15.5,-3.1,-9.5,51,20,11,30.03,29.62,15,5,15,0.00
2013-4-7,56.5,47.1,33.1,20.6,4.6,-6.2,45,18,11,29.83,29.41,13,4,13,0.00
2013-4-8,60.1,42.0,28.2,36.3,23.0,5.2,85,51,16,29.85,29.50,15,3,15,0.08
2013-4-9,51.6,44.4,40.5,41.7,29.8,17.4,83,58,27,29.88,29.71,10,2,10,0.79
2013-4-10,46.6,40.7,37.4,41.7,32.8,22.3,86,74,53,29.80,29.65,9,2,9,0.28
2013-4-11,40.5,36.6,35.1,36.6,26.8,19.9,86,68,49,29.80,29.47,12,3,12,0.94
2013-4-12,43.9,38.8,35.1,39.0,24.0,10.4,92,60,28,29.56,29.35,10,2,10,0.28
2013-4-13,43.5,38.8,36.5,25.8,6.3,-4.7,55,27,15,29.80,29.56,15,4,15,0.00
2013-4-14,49.1,40.2,29.5,32.2,4.3,-5.1,78,25,11,29.91,29.77,10,2,10,0.00
2013-4-15,72.7,53.8,33.8,37.0,14.7,6.7,76,27,9,29.80,29.71,15,3,15,0.00
2013-4-16,64.6,55.0,43.7,36.6,16.8,-3.8,49,26,8,30.03,29.68,8,2,8,0.00
2013-4-17,64.6,47.9,36.1,33.7,8.8,-2.9,67,25,8,30.15,29.88,12,3,12,0.51
2013-4-18,79.9,57.7,43.9,53.7,39.3,25.3,79,55,17,29.88,29.41,20,4,20,0.55
2013-4-19,59.0,46.6,36.3,52.5,21.9,-2.5,81,44,15,29.56,29.18,16,5,16,0.39
2013-4-20,41.9,34.6,27.1,18.9,-2.2,-11.3,54,22,13,30.24,29.53,13,4,13,0.00
2013-4-21,51.1,37.5,22.8,31.0,4.2,-8.9,88,35,11,30.42,30.24,13,3,13,0.00
2013-4-22,64.0,47.0,27.9,32.9,5.6,-7.9,86,26,8,30.27,30.03,12,3,13,0.00
2013-4-23,73.6,54.6,34.9,45.4,13.3,-1.6,68,27,6,30.03,29.65,13,3,17,0.08
2013-4-24,55.8,40.9,35.6,49.0,26.2,9.0,79,56,33,29.88,29.59,7,2,8,0.67
2013-4-25,53.1,40.9,29.7,27.0,9.3,-6.4,52,30,11,30.12,29.88,14,2,14,0.08
2013-4-26,63.9,47.6,28.6,24.0,6.3,-4.0,78,26,8,30.24,30.12,15,2,15,0.00
2013-4-27,75.4,55.3,33.6,23.3,4.0,-5.9,57,17,5,30.15,29.91,13,2,13,0.00
2013-4-28,59.0,50.1,40.1,48.1,27.5,-2.6,81,48,12,29.91,29.62,10,2,14,0.16
2013-4-29,72.3,59.3,53.1,48.8,33.9,8.5,84,49,9,29.71,29.62,9,1,9,0.04
2013-4-30,72.9,60.6,48.2,49.5,29.4,13.9,75,35,11,29.83,29.68,18,2,18,0.24
2013-5-1,84.9,65.6,46.0,47.8,22.5,8.5,79,30,6,29.91,29.77,15,3,15,0.00
2013-5-2,84.6,66.2,48.6,34.8,13.6,0.3,52,17,6,29.94,29.83,17,4,17,0.00
2013-5-3,77.4,64.6,49.8,22.0,8.2,-0.3,32,12,5,29.83,29.77,15,3,16,0.00
2013-5-4,72.9,62.5,51.1,22.0,4.1,-1.2,31,11,6,29.83,29.77,15,4,15,0.00
2013-5-5,76.3,60.3,42.6,26.0,8.4,-1.6,50,17,5,29.80,29.71,12,3,232,0.00
2013-5-6,80.6,60.8,39.7,25.9,9.4,-3.0,55,18,6,29.77,29.65,12,2,15,0.00
2013-5-7,82.2,64.1,44.8,27.8,13.9,0.5,50,19,6,29.77,29.68,11,2,13,0.00
2013-5-8,87.6,66.6,49.3,31.7,15.8,1.0,43,18,6,29.71,29.62,8,1,8,0.00
2013-5-9,90.7,67.4,46.8,39.8,18.7,-0.3,75,26,5,29.68,29.59,8,1,8,0.00
2013-5-10,69.8,57.1,41.7,53.3,31.2,0.5,77,43,8,29.62,29.44,6,1,6,0.28
2013-5-11,67.8,48.8,38.1,31.8,19.5,0.3,64,36,7,29.56,29.29,10,2,10,0.00
2013-5-12,52.9,41.9,32.7,15.4,1.8,-9.5,41,20,11,29.74,29.32,13,3,18,0.00
2013-5-13,60.4,44.2,29.1,9.7,-0.2,-7.2,41,18,9,29.80,29.62,8,1,8,0.00
2013-5-14,71.6,51.8,36.1,20.5,7.8,-1.0,46,21,7,29.62,29.26,13,3,15,0.00
2013-5-15,86.2,69.1,50.5,51.3,19.4,0.4,79,24,6,29.29,29.03,14,2,14,0.00
2013-5-16,89.1,68.2,47.8,28.4,10.5,-1.6,44,14,5,29.47,29.21,8,1,11,0.00
2013-5-17,76.3,59.2,42.6,22.9,6.2,-2.2,44,15,6,29.59,29.47,8,1,9,0.00
2013-5-18,83.8,66.4,51.6,22.2,9.0,-0.7,30,12,5,29.59,29.47,11,2,13,0.00
2013-5-19,92.5,71.8,50.4,31.3,16.7,5.2,45,17,4,29.50,29.35,9,2,9,0.00
2013-5-20,94.1,76.4,58.3,48.7,25.9,6.1,68,24,4,29.38,29.23,14,2,14,0.00
2013-5-21,90.0,75.3,62.4,58.9,29.6,8.6,68,26,5,29.26,29.18,8,1,8,0.04
2013-5-22,82.2,70.4,63.0,54.4,38.7,9.8,64,35,9,29.21,29.09,13,2,13,0.00
2013-5-23,65.5,52.7,39.4,51.1,35.2,23.8,74,52,37,29.53,29.12,8,1,8,0.16
2013-5-24,59.5,45.8,35.6,31.5,11.7,-3.8,81,35,9,29.74,29.53,8,1,11,0.00
2013-5-25,70.5,51.8,32.5,37.3,10.5,-3.8,82,31,7,29.80,29.71,6,1,6,0.00
2013-5-26,76.1,55.1,34.2,34.6,9.7,-3.8,80,27,5,29.74,29.65,8,1,8,0.00
2013-5-27,73.4,52.6,35.1,44.8,17.2,-1.5,79,34,6,29.68,29.47,12,2,12,0.28
2013-5-28,70.5,59.0,50.7,61.8,52.4,44.6,84,79,46,29.47,29.26,8,1,9,1.26
2013-5-29,88.9,72.9,61.3,62.1,46.6,8.8,82,51,5,29.44,29.23,11,1,11,0.28
2013-5-30,95.0,72.9,60.4,63.9,47.1,6.3,80,51,4,29.50,29.41,10,1,10,0.51
2013-5-31,88.3,72.8,62.1,64.2,48.5,28.8,81,50,13,29.44,29.32,10,1,10,0.71
2013-6-1,87.3,73.0,64.0,62.8,41.2,16.6,81,42,8,29.32,29.15,13,2,13,0.08
2013-6-2,77.5,66.3,54.1,48.4,30.7,13.8,54,30,10,29.41,29.12,11,2,11,0.00
2013-6-3,75.9,59.2,40.6,31.4,11.5,-0.3,59,20,6,29.53,29.41,9,1,9,0.00
2013-6-4,77.9,60.6,42.8,40.1,16.3,-1.5,80,29,6,29.62,29.53,6,1,6,0.00
2013-6-5,79.3,61.8,44.8,30.6,12.9,-1.7,56,20,6,29.62,29.44,10,1,10,0.00
2013-6-6,69.6,59.9,53.6,34.7,15.0,3.7,39,18,11,29.47,29.32,7,1,7,0.00
2013-6-7,64.8,56.8,50.0,42.7,31.9,26.8,71,40,24,29.41,29.32,8,0,8,0.00
2013-6-8,77.0,63.4,55.2,37.6,25.8,8.6,50,29,8,29.71,29.38,4,0,5,0.00
2013-6-9,80.6,65.6,50.7,48.5,22.8,7.6,77,31,7,29.74,29.62,12,2,13,0.00
2013-6-10,69.6,64.7,59.4,62.3,51.4,7.1,81,67,10,29.62,29.38,6,0,7,0.98
2013-6-11,88.3,72.1,62.2,60.3,44.1,16.6,85,47,8,29.53,29.41,8,0,8,0.04
2013-6-12,79.0,69.5,59.4,62.5,47.2,34.1,85,51,21,29.59,29.38,8,0,10,0.00
2013-6-13,82.9,69.9,60.8,59.3,35.3,8.6,82,41,6,29.59,29.26,8,1,10,0.87
2013-6-14,83.7,67.6,55.6,45.1,23.2,7.9,66,26,6,29.74,29.59,8,1,9,0.00
2013-6-15,86.9,65.9,49.6,52.0,33.2,8.8,79,39,6,29.74,29.59,7,0,7,0.00
2013-6-16,87.6,72.0,63.7,59.3,35.5,9.1,82,35,7,29.59,29.44,10,2,11,0.24
2013-6-17,93.9,72.1,59.0,52.9,27.9,6.1,78,28,4,29.62,29.53,9,1,12,0.24
2013-6-18,77.4,63.2,51.1,57.0,27.6,0.1,82,39,7,29.77,29.59,8,1,9,0.00
2013-6-19,82.4,63.1,45.0,43.6,16.5,0.8,79,24,6,29.85,29.74,8,1,8,0.00
2013-6-20,89.6,68.4,48.0,49.0,20.5,8.6,78,26,5,29.88,29.83,8,1,8,0.00
2013-6-21,91.0,73.1,53.1,46.0,23.6,8.6,74,23,5,29.88,29.74,8,1,8,0.00
2013-6-22,100.0,78.9,63.9,46.1,32.6,3.6,46,23,5,29.77,29.65,6,1,6,0.00
2013-6-23,96.8,82.4,68.5,59.8,31.7,3.5,71,24,3,29.74,29.65,11,1,12,0.00
2013-6-24,95.9,80.6,67.6,63.5,34.4,16.5,79,24,6,29.74,29.62,8,1,10,0.91
2013-6-25,84.9,72.2,66.4,63.5,53.6,40.4,78,55,23,29.65,29.53,9,0,10,0.24
2013-6-26,91.9,77.3,64.0,62.9,43.3,23.5,81,38,9,29.56,29.47,9,1,11,0.00
2013-6-27,94.6,75.6,65.5,65.2,49.0,6.4,80,52,4,29.47,29.32,11,1,11,2.40
2013-6-28,84.7,69.4,65.1,60.6,52.6,30.9,83,60,17,29.35,29.23,10,0,10,0.16
2013-6-29,83.5,69.8,60.1,59.0,40.1,18.8,82,43,11,29.44,29.23,7,1,8,0.00
2013-6-30,82.9,70.2,57.2,55.8,27.8,6.1,79,27,9,29.65,29.44,9,1,9,0.00
2013-7-1,70.9,63.6,58.3,51.9,29.9,10.5,73,31,14,29.77,29.65,6,0,6,0.04
2013-7-2,80.1,67.2,58.1,49.3,36.6,26.3,72,36,15,29.80,29.71,8,1,8,0.00
2013-7-3,90.5,72.4,57.7,55.9,38.7,16.6,81,40,7,29.80,29.74,8,1,8,0.00
2013-7-4,88.3,76.6,67.1,61.7,37.7,16.9,76,32,8,29.83,29.77,6,1,6,0.00
2013-7-5,92.8,77.0,67.8,60.5,36.6,6.1,76,32,4,29.83,29.74,6,0,6,0.00
2013-7-6,92.1,77.0,65.5,61.7,40.9,17.5,74,36,7,29.83,29.71,9,1,9,0.20
2013-7-7,88.2,76.5,69.8,64.1,49.5,31.2,80,45,13,29.74,29.68,8,0,8,0.00
2013-7-8,89.1,74.7,68.9,65.1,50.4,40.2,82,47,19,29.74,29.68,7,1,7,0.39
2013-7-9,95.0,78.7,68.5,68.6,51.0,25.3,86,49,9,29.71,29.59,6,0,6,0.00
2013-7-10,95.0,79.5,63.1,69.7,46.1,22.8,85,41,9,29.65,29.47,9,1,9,0.39
2013-7-11,84.6,69.7,57.4,49.3,28.5,8.8,73,29,6,29.80,29.65,6,1,6,0.00
2013-7-12,87.1,70.6,54.9,55.8,30.9,8.8,84,34,6,29.88,29.80,8,0,8,0.00
2013-7-13,90.5,74.4,57.9,52.2,29.2,8.6,79,31,5,29.94,29.85,8,1,8,0.00
2013-7-14,96.1,79.1,61.7,58.7,36.5,7.5,78,33,4,29.97,29.91,8,1,8,0.00
2013-7-15,87.3,72.7,67.6,60.5,52.0,40.1,77,51,21,30.03,29.97,4,0,5,0.00
2013-7-16,83.8,81.8,79.2,57.2,52.5,48.7,47,37,30,29.97,29.94,0,0,0,0.00
2013-7-17,102.4,86.4,72.1,64.7,46.9,25.3,71,31,7,30.00,29.85,6,1,8,0.00
2013-7-18,101.7,86.6,72.5,62.9,42.8,17.4,71,27,5,29.88,29.68,6,1,6,0.00
2013-7-19,98.4,87.1,77.2,51.3,39.1,16.5,40,22,6,29.71,29.47,14,3,14,0.00
2013-7-20,92.7,79.6,67.6,43.4,25.9,6.1,38,18,4,29.68,29.56,8,0,8,0.00
2013-7-21,88.7,73.2,59.5,43.8,29.4,8.6,48,25,5,29.77,29.68,5,0,5,0.00
2013-7-22,87.3,73.6,62.8,48.9,36.7,17.4,54,30,8,29.71,29.50,8,1,8,0.00
2013-7-23,82.2,69.3,60.3,64.7,50.8,25.2,81,55,24,29.62,29.41,7,1,7,0.47
2013-7-24,68.5,59.4,54.0,32.5,27.9,16.5,43,31,15,29.74,29.62,6,1,6,0.00
2013-7-25,80.4,70.2,61.9,36.8,19.7,8.6,39,16,7,29.83,29.80,6,1,6,0.00
2013-7-26,86.4,70.5,54.7,53.4,27.7,8.8,79,30,6,29.83,29.65,8,1,8,0.00
2013-7-27,76.5,66.5,56.5,58.4,48.8,37.2,77,55,25,29.65,29.50,10,1,10,0.75
2013-7-28,68.2,57.6,48.4,48.5,38.6,26.5,82,53,22,29.71,29.56,8,1,10,0.12
2013-7-29,72.0,61.7,55.2,50.0,39.9,29.2,80,49,22,29.91,29.71,6,1,8,0.00
2013-7-30,86.2,68.2,51.4,51.3,30.6,8.6,84,37,6,29.97,29.85,8,0,8,0.00
2013-7-31,71.4,65.6,59.5,61.8,53.5,42.0,81,66,43,29.88,29.62,8,0,8,0.35
2013-8-1,85.6,69.4,62.8,60.4,42.7,16.0,88,48,8,29.65,29.62,10,1,10,0.00
2013-8-2,82.0,66.3,53.4,51.1,38.1,22.1,83,40,12,29.68,29.59,9,1,9,0.00
2013-8-3,84.9,70.2,56.1,56.0,32.5,8.8,84,36,6,29.80,29.62,6,1,8,0.00
2013-8-4,79.0,64.0,52.2,52.6,31.6,12.8,85,37,10,29.88,29.80,6,1,8,0.00
2013-8-5,78.1,62.2,50.9,50.7,33.8,8.6,81,44,8,29.85,29.71,9,1,9,0.00
2013-8-6,79.9,68.2,60.3,59.7,46.5,33.0,80,51,20,29.74,29.65,8,1,10,0.04
2013-8-7,87.6,73.0,61.7,62.4,48.3,33.2,89,50,16,29.68,29.56,9,1,9,0.20
2013-8-8,81.0,69.7,61.9,62.5,47.4,32.0,83,51,20,29.77,29.65,6,0,6,0.04
2013-8-9,87.4,71.0,57.4,52.2,30.0,8.8,80,32,6,29.77,29.68,7,0,7,0.00
2013-8-10,84.4,69.4,57.4,54.0,32.2,9.1,80,34,7,29.88,29.74,5,0,6,0.00
2013-8-11,82.9,68.9,57.9,51.8,38.2,22.2,73,38,11,29.88,29.77,6,0,6,0.00
2013-8-12,72.9,66.0,61.0,60.9,52.3,42.2,83,63,34,29.83,29.59,8,0,8,0.24
2013-8-13,70.2,62.7,51.1,60.2,36.4,12.4,91,46,12,29.80,29.59,8,1,8,0.00
2013-8-14,76.1,60.0,48.2,42.7,28.7,9.4,76,37,9,29.88,29.80,8,1,8,0.00
2013-8-15,82.2,63.0,47.3,47.4,26.5,8.5,83,36,7,29.91,29.85,8,0,8,0.00
2013-8-16,86.9,66.6,49.8,51.1,30.0,8.8,83,37,6,29.97,29.85,5,0,5,0.00
2013-8-17,87.1,67.7,50.9,48.8,29.1,8.6,81,37,6,30.03,29.94,7,1,8,0.00
2013-8-18,85.3,67.4,53.8,53.7,33.5,8.8,82,40,6,30.00,29.88,6,0,6,0.00
2013-8-19,88.7,70.6,55.2,52.0,32.1,8.7,80,37,5,29.88,29.80,6,0,6,0.00
2013-8-20,92.1,72.8,55.8,53.3,35.8,16.6,78,37,7,29.91,29.83,6,1,6,0.00
2013-8-21,92.5,76.2,61.9,61.5,39.0,17.5,78,36,7,29.91,29.77,8,1,8,0.00
2013-8-22,88.2,76.7,68.4,55.4,41.8,29.1,61,32,13,29.83,29.74,6,0,6,0.00
2013-8-23,89.8,70.6,55.8,51.0,30.2,8.6,75,34,5,29.97,29.83,6,0,6,0.00
2013-8-24,88.9,68.4,51.4,54.6,29.5,8.6,82,36,5,30.09,29.97,9,1,9,0.00
2013-8-25,92.3,73.2,53.2,59.8,29.5,6.1,82,33,4,30.06,29.91,11,1,11,0.00
2013-8-26,91.6,79.4,69.8,46.3,34.5,21.2,35,21,12,29.91,29.74,8,2,8,0.00
2013-8-27,84.0,75.9,69.3,69.0,56.4,43.8,83,54,28,29.77,29.65,8,0,8,0.91
2013-8-28,86.5,76.1,68.2,69.5,57.9,39.8,87,59,21,29.80,29.59,4,0,4,0.00
2013-8-29,95.0,77.2,64.4,64.7,46.5,16.6,88,47,6,29.85,29.80,8,0,8,0.00
2013-8-30,91.8,76.9,63.5,65.8,48.4,30.3,83,47,12,29.80,29.53,10,1,10,1.02
2013-8-31,82.4,74.0,64.4,66.9,52.9,37.5,83,54,21,29.65,29.56,5,0,5,0.00
2013-9-1,79.7,69.4,61.7,62.5,53.6,41.6,84,62,27,29.65,29.53,6,0,6,0.00
2013-9-2,80.1,69.1,60.1,64.6,44.4,26.2,87,47,20,29.68,29.50,9,1,10,0.00
2013-9-3,78.4,64.7,56.7,41.9,31.3,17.4,55,32,13,29.80,29.68,8,1,9,0.00
2013-9-4,85.1,68.1,51.8,51.6,37.7,22.7,84,40,11,29.85,29.77,9,1,11,0.00
2013-9-5,76.6,63.2,48.7,50.8,29.3,8.1,77,35,8,30.06,29.85,6,1,8,0.00
2013-9-6,80.2,60.0,42.8,51.5,26.0,1.0,88,42,6,30.06,29.85,9,1,9,0.00
2013-9-7,81.7,67.1,53.6,54.9,38.6,24.3,56,36,21,29.85,29.68,8,0,8,0.00
2013-9-8,77.4,67.6,53.1,61.2,35.8,9.0,77,38,10,29.88,29.71,11,1,11,0.00
2013-9-9,77.5,63.0,49.6,58.5,45.2,36.1,84,56,28,29.88,29.71,10,1,10,0.00
2013-9-10,98.4,81.3,67.3,63.5,43.8,16.5,82,36,6,29.80,29.68,8,1,11,0.00
2013-9-11,96.4,79.4,68.7,63.0,46.6,36.0,81,37,14,29.83,29.68,8,1,8,1.10
2013-9-12,81.7,68.2,52.9,63.2,49.8,25.6,89,60,14,29.74,29.56,7,1,7,0.24
2013-9-13,61.3,52.7,41.2,47.4,33.0,14.1,81,51,22,29.88,29.68,9,1,9,0.00
2013-9-14,73.2,53.1,36.9,49.9,26.9,6.5,95,51,9,29.91,29.77,8,1,8,0.00
2013-9-15,65.5,54.2,46.6,50.0,41.1,26.5,85,65,24,29.88,29.74,4,0,5,0.04
2013-9-16,66.0,55.0,41.5,53.3,34.2,11.9,97,55,13,30.03,29.77,6,1,6,0.08
2013-9-17,71.1,51.9,37.8,45.8,26.8,6.1,90,50,10,30.06,29.83,10,1,10,0.00
2013-9-18,80.4,59.2,41.4,53.2,30.1,8.5,90,47,7,29.83,29.65,9,1,9,0.00
2013-9-19,82.0,66.9,52.5,60.1,45.0,37.8,83,51,22,29.65,29.47,9,1,9,0.00
2013-9-20,83.7,71.5,67.3,65.2,56.9,39.5,87,65,26,29.47,29.26,10,1,10,0.20
2013-9-21,70.7,62.9,52.0,61.4,42.9,23.4,83,53,23,29.41,29.21,6,1,6,0.08
2013-9-22,63.1,52.6,42.3,36.5,24.5,13.8,77,37,16,29.62,29.41,6,1,6,0.00
2013-9-23,64.2,49.5,39.4,45.4,30.3,11.8,91,56,14,29.74,29.62,6,0,6,0.00
2013-9-24,72.5,52.6,37.4,46.2,27.6,6.7,94,52,9,29.71,29.56,8,1,8,0.00
2013-9-25,74.5,54.9,39.9,49.4,28.0,8.6,93,50,8,29.59,29.50,9,0,9,0.00
2013-9-26,80.2,58.2,42.6,54.1,29.6,8.6,92,49,7,29.71,29.56,8,0,8,0.00
2013-9-27,79.2,59.7,44.1,53.6,33.3,14.6,92,50,10,29.80,29.71,6,1,6,0.00
2013-9-28,80.6,63.0,49.8,57.9,35.6,8.5,91,49,8,29.77,29.59,13,1,13,0.00
2013-9-29,63.0,58.3,52.0,56.3,48.8,36.6,84,72,45,29.59,29.53,4,0,4,0.16
2013-9-30,73.6,61.5,51.1,55.1,41.8,19.2,90,58,14,29.59,29.50,8,0,8,0.00
2013-10-1,73.9,61.9,49.6,60.8,42.6,34.8,92,55,25,29.59,29.50,8,1,8,0.00
2013-10-2,82.2,65.7,51.6,57.8,34.5,8.6,89,43,7,29.65,29.50,8,0,8,0.00
2013-10-3,82.0,64.4,49.5,52.4,41.5,32.7,83,50,20,29.65,29.50,8,1,8,0.00
2013-10-4,83.7,70.5,62.6,62.5,51.3,37.2,87,56,20,29.62,29.53,7,0,7,0.00
2013-10-5,74.8,67.3,63.3,64.3,54.9,0.0,88,67,34,29.62,29.47,8,1,8,0.24
2013-10-6,70.7,65.7,55.6,64.9,56.4,40.9,91,74,38,29.47,29.23,8,1,10,0.28
2013-10-7,58.1,52.2,45.7,49.5,36.6,22.3,83,58,29,29.68,29.26,11,1,11,0.04
2013-10-8,72.0,53.3,40.1,57.2,28.7,6.1,96,54,9,29.85,29.68,9,1,9,0.00
2013-10-9,74.3,53.3,38.7,47.3,27.3,0.9,92,50,8,29.88,29.80,9,1,9,0.00
2013-10-10,74.5,53.1,38.8,51.6,26.7,0.4,90,51,7,29.83,29.71,6,1,6,0.00
2013-10-11,75.9,53.5,37.4,45.2,25.7,0.4,90,48,6,29.74,29.65,6,1,6,0.00
2013-10-12,79.9,59.9,43.5,52.3,33.6,14.4,86,47,10,29.68,29.62,9,1,10,0.00
2013-10-13,71.4,59.2,44.8,54.4,25.6,0.4,85,37,7,29.91,29.68,9,1,9,0.00
2013-10-14,68.7,51.5,41.2,44.7,24.7,5.5,92,47,10,29.97,29.83,6,0,6,0.00
2013-10-15,66.2,51.6,36.3,56.0,37.0,29.5,87,62,27,29.85,29.41,10,2,10,0.00
2013-10-16,65.8,57.9,52.0,56.8,35.7,14.3,91,50,15,29.47,29.38,9,2,12,0.04
2013-10-17,53.6,50.9,46.4,45.7,37.9,28.4,83,62,41,29.47,29.32,8,0,8,0.24
2013-10-18,65.1,50.7,39.6,45.2,25.1,3.8,88,48,11,29.47,29.41,9,1,9,0.00
2013-10-19,50.2,44.5,39.9,39.1,29.1,19.8,81,56,37,29.47,29.29,9,1,9,0.16
2013-10-20,58.1,47.4,36.0,40.0,22.8,7.2,86,45,14,29.50,29.41,7,1,7,0.00
2013-10-21,53.6,49.7,39.0,41.5,25.6,18.6,71,40,26,29.44,29.38,10,2,10,0.12
2013-10-22,51.8,41.1,31.6,21.3,11.0,-0.2,49,31,13,29.47,29.41,15,1,15,0.00
2013-10-23,50.4,39.5,30.9,34.9,12.9,-4.6,92,41,12,29.50,29.38,8,1,8,0.00
2013-10-24,51.1,38.4,30.6,27.3,13.0,-0.6,81,41,14,29.71,29.47,10,2,10,0.00
2013-10-25,49.1,38.7,30.6,29.2,13.4,-0.9,86,41,14,29.85,29.68,8,1,8,0.00
2013-10-26,52.7,42.3,35.8,35.4,11.6,-0.9,78,35,13,29.68,29.35,15,2,15,0.04
2013-10-27,53.1,40.5,33.4,28.4,17.6,1.7,81,46,13,29.65,29.56,9,1,9,0.00
2013-10-28,50.7,40.0,31.3,32.0,18.0,11.6,80,44,27,29.97,29.62,8,0,8,0.00
2013-10-29,48.4,41.5,35.4,32.2,12.6,-0.2,71,33,14,30.00,29.83,6,0,6,0.00
2013-10-30,65.7,46.5,30.2,49.8,22.5,6.0,98,50,10,29.83,29.56,8,1,8,0.04
2013-10-31,61.2,58.2,51.4,58.4,53.8,42.5,93,86,71,29.56,28.79,11,2,11,1.18
2013-11-1,60.1,50.8,46.0,57.5,27.1,18.0,91,42,26,29.26,28.73,17,3,18,0.04
2013-11-2,46.9,43.3,33.3,42.7,31.4,17.4,87,64,42,29.68,29.23,6,0,6,0.16
2013-11-3,47.7,36.4,29.8,38.6,18.4,2.5,96,55,17,30.03,29.68,8,1,8,0.00
2013-11-4,47.7,38.2,28.4,32.5,10.9,-4.3,91,40,12,30.06,29.88,16,3,16,0.00
2013-11-5,55.9,47.3,36.0,38.2,24.6,11.1,76,42,27,29.94,29.77,6,0,6,0.00
2013-11-6,55.2,50.9,42.4,46.6,32.5,20.6,80,51,30,29.77,29.41,15,2,15,0.24
2013-11-7,42.6,39.6,34.5,36.7,13.8,1.4,80,36,21,29.71,29.56,10,2,10,0.04
2013-11-8,46.2,35.6,27.9,28.9,8.8,-4.5,83,36,15,29.85,29.68,6,1,6,0.00
2013-11-9,56.5,45.8,32.9,24.4,13.3,6.3,69,29,15,29.77,29.38,14,3,14,0.00
2013-11-10,49.1,41.8,30.2,28.2,10.9,2.2,60,29,16,29.85,29.47,17,2,17,0.00
2013-11-11,42.6,35.7,27.9,34.0,17.4,6.8,81,48,33,29.88,29.62,7,1,9,0.08
2013-11-12,36.1,28.0,21.9,15.6,1.8,-7.6,59,33,18,30.09,29.85,12,2,12,0.04
2013-11-13,44.1,30.5,17.6,18.8,0.5,-10.9,82,34,13,30.09,29.74,13,2,13,0.00
2013-11-14,51.6,39.4,26.6,17.6,-4.0,-11.7,54,16,11,29.74,29.59,10,3,11,0.00
2013-11-15,55.2,43.1,35.6,21.5,0.5,-7.4,45,18,10,29.68,29.59,9,1,9,0.00
2013-11-16,54.3,43.3,28.6,39.9,25.1,10.0,75,49,35,29.74,29.44,12,2,17,0.00
2013-11-17,60.3,55.8,46.2,54.8,44.7,23.4,91,68,36,29.44,28.88,15,4,15,0.55
2013-11-18,46.8,40.0,34.5,24.7,13.0,6.3,42,33,29,29.71,29.06,15,4,15,0.00
2013-11-19,44.4,34.2,23.9,17.7,5.1,-4.8,61,31,15,30.00,29.71,6,1,6,0.00
2013-11-20,46.0,32.0,21.2,31.6,15.9,-0.6,95,58,15,30.06,29.85,15,2,15,0.00
2013-11-21,48.6,42.1,32.7,40.6,25.5,14.1,87,54,31,29.88,29.80,8,1,10,0.16
2013-11-22,48.9,39.4,26.4,47.3,29.3,9.4,94,69,40,29.94,29.74,6,0,9,0.08
2013-11-23,30.7,24.1,15.8,23.9,0.8,-16.9,81,38,16,30.06,29.83,10,2,10,0.00
2013-11-24,27.0,18.6,13.6,13.1,-3.8,-15.4,76,38,17,30.15,30.00,8,1,8,0.00
2013-11-25,32.7,25.1,17.4,17.1,-0.3,-8.7,67,34,18,30.00,29.68,11,3,13,0.00
2013-11-26,35.8,31.8,28.6,27.1,14.8,10.8,81,50,40,29.71,29.53,7,1,8,0.00
2013-11-27,30.9,23.7,17.8,14.9,0.1,-10.5,57,36,21,29.77,29.50,11,2,11,0.00
2013-11-28,24.8,19.4,16.0,17.8,2.0,-5.8,82,47,34,29.94,29.77,6,1,6,0.00
2013-11-29,37.6,29.4,20.3,23.0,8.9,-1.4,86,45,22,30.24,30.15,6,1,8,0.00
2013-11-30,46.6,33.5,21.6,26.1,12.8,5.3,88,45,20,30.15,29.71,11,2,11,0.00
2013-12-1,45.3,36.1,29.5,35.6,18.2,11.8,88,49,33,29.71,29.62,6,0,6,0.00
2013-12-2,41.2,32.8,23.5,34.5,12.0,-1.1,89,45,18,29.62,29.53,7,0,7,0.00
2013-12-3,40.3,31.6,21.4,37.0,22.4,8.4,95,71,42,29.56,29.50,8,2,10,0.00
2013-12-4,53.4,43.6,36.0,47.3,34.6,26.0,94,74,41,29.56,29.29,9,2,10,0.00
2013-12-5,56.5,43.3,30.4,48.8,19.8,3.4,81,40,27,29.77,29.26,15,3,15,0.00
2013-12-6,32.4,26.4,19.4,26.0,1.2,-5.1,77,33,26,30.00,29.74,8,1,10,0.00
2013-12-7,27.3,19.8,10.8,17.7,-4.3,-14.9,86,36,16,30.27,30.00,8,1,11,0.00
2013-12-8,30.4,18.9,9.5,26.8,2.9,-12.5,87,52,22,30.18,29.65,11,2,11,0.00
2013-12-9,32.2,26.9,20.3,29.5,11.1,-5.3,91,53,33,29.71,29.50,14,4,15,0.00
2013-12-10,22.3,18.9,11.8,16.8,-4.7,-17.5,86,36,17,29.80,29.56,14,4,14,0.00
2013-12-11,24.8,18.1,7.5,12.8,-1.4,-11.2,75,42,32,30.06,29.80,8,2,8,0.00
2013-12-12,20.5,13.9,4.5,8.0,-7.1,-17.9,69,39,18,30.06,29.80,13,3,13,0.00
2013-12-13,31.1,23.8,18.9,25.0,4.9,-4.4,85,45,32,29.94,29.74,9,1,9,0.00
2013-12-14,26.8,19.9,15.8,24.5,6.8,-5.2,93,58,34,29.94,29.47,10,2,10,0.00
2013-12-15,27.0,20.8,12.6,23.3,6.9,-8.2,90,57,34,29.65,29.41,11,2,14,0.00
2013-12-16,29.8,17.2,10.2,18.9,0.4,-14.0,90,52,15,29.80,29.65,8,2,8,0.00
2013-12-17,30.2,23.1,14.5,27.9,13.0,3.7,91,66,42,29.65,29.53,8,2,8,0.00
2013-12-18,32.2,26.3,21.2,27.8,11.6,0.3,88,55,33,29.74,29.56,10,2,10,0.00
2013-12-19,42.8,32.1,22.1,38.3,14.5,0.8,85,49,34,29.65,29.50,6,1,6,0.08
2013-12-20,39.4,34.7,33.1,38.2,32.5,21.7,96,92,62,29.59,29.41,4,0,4,0.43
2013-12-21,41.2,34.4,32.7,40.7,30.9,21.8,98,87,61,29.56,29.38,5,0,5,0.59
2013-12-22,38.8,34.6,33.1,36.1,27.7,16.2,92,77,45,29.62,29.26,8,0,8,0.28
2013-12-23,35.2,28.1,21.4,33.4,10.7,-2.0,93,49,35,29.94,29.62,8,2,8,0.00
2013-12-24,21.2,13.9,2.7,5.7,-4.1,-11.1,59,45,28,30.18,29.91,8,2,8,0.00
2013-12-25,26.6,17.4,0.9,16.3,2.8,-10.8,69,52,41,30.15,29.80,11,2,11,0.00
2013-12-26,30.4,25.6,23.5,22.5,8.4,-1.3,83,49,31,29.94,29.71,10,2,14,0.00
2013-12-27,39.0,32.1,24.8,28.2,14.1,7.9,85,48,33,29.97,29.74,10,2,10,0.00
2013-12-28,49.1,39.3,32.4,25.5,15.6,12.8,56,38,27,29.83,29.62,11,2,11,0.00
2013-12-29,42.6,33.6,20.7,23.1,12.7,-1.5,56,42,31,29.71,29.41,8,2,8,0.00
2013-12-30,21.9,18.7,15.4,10.3,-5.8,-13.7,65,34,22,29.97,29.71,7,1,8,0.00
2013-12-31,21.9,17.1,12.7,14.1,-3.7,-12.5,72,39,25,30.03,29.74,12,3,13,0.00
2014-1-1,19.8,14.3,10.4,15.6,-1.1,-16.4,85,51,24,30.09,29.97,8,1,8,0.00
2014-1-2,17.8,12.5,2.7,3.9,-2.6,-11.3,66,51,34,29.97,29.80,9,3,9,0.00